Weather History for New Bern, NC

Change the Weather History Date:

Tuesday, July 2, 2013

  Actual Average Record
Temperature  
Mean Temperature 82 °F 80 °F  
Max Temperature 89 °F 89 °F 96 °F (1953)
Min Temperature 74 °F 71 °F 55 °F (1975)
Degree Days  
Heating Degree Days 0 0  
Month to date heating degree days 0 0  
Since 1 June heating degree days 0 1  
Since 1 July heating degree days 0 0  
Cooling Degree Days 17 15  
Month to date cooling degree days 30 30  
Year to date cooling degree days 695 638  
Since 1 June cooling degree days 439 395  
Growing Degree Days 32 (Base 50)    
Moisture  
Dew Point 74 °F    
Average Humidity 79    
Maximum Humidity 94    
Minimum Humidity 63    
Precipitation  
Precipitation 0.08 in 0.18 in 1.36 in (1960)
Month to date precipitation 0.49 0.35  
Year to date precipitation 20.05 24.33  
Snow  
Snow 0.00 in - - ()
Month to date snowfall 0.0  
Since 1 July snowfall 0.0  
Snow Depth -    
Sea Level Pressure  
Sea Level Pressure 30.16 in    
Wind  
Wind Speed 9 mph (South)    
Max Wind Speed 22 mph    
Max Gust Speed 35 mph    
Visibility 9 miles    
Events Rain    
T = Trace of Precipitation, MM = Missing Value Source: NWS Daily Summary

Daily Weather History Graph

Daily Weather History Graph

Search for Another Location

Airport:

Trip Planner

Search our weather history database for the weather conditions in past years. The results will help you decide how hot, cold, wet, or windy it might be!

Date:

Astronomy

Jul. 02, 2013 Rise Set
Actual Time 5:58 AM EDT 8:26 PM EDT
Civil Twilight 5:28 AM EDT 8:55 PM EDT
Nautical Twilight 4:52 AM EDT 9:32 PM EDT
Astronomical Twilight 4:11 AM EDT 10:12 PM EDT
Moon 1:53 AM EDT (7/2) 3:43 PM EDT (7/2)
Length of Visible Light 15h 27m
Length of Day
14h 27m
Waning Crescent, 26% of the Moon is Illuminated
Jul 2
Waning Crescent
Jul 8
New
Jul 15
First Quarter
Jul 22
Full
Jul 29
Last Quarter

Hourly Weather History & Observations

Time (EDT) Temp. Heat Index Dew Point Humidity Pressure Visibility Wind Dir Wind Speed Gust Speed Precip Events Conditions
12:54 AM 77.0 °F - 73.0 °F 88% 30.08 in 10.0 mi South 8.1 mph - N/A   Partly Cloudy
1:54 AM 75.9 °F - 73.0 °F 91% 30.11 in 2.5 mi SW 18.4 mph 34.5 mph 0.00 in Rain Heavy Rain
1:58 AM 75.2 °F - 71.6 °F 89% 30.11 in 1.8 mi SSW 15.0 mph 34.5 mph 0.00 in Rain Heavy Rain
2:05 AM 75.2 °F - 71.6 °F 89% 30.11 in 2.5 mi SSW 16.1 mph 23.0 mph N/A Rain Rain
2:23 AM 75.2 °F - 71.6 °F 89% 30.10 in 7.0 mi SSW 12.7 mph 26.5 mph N/A Rain Light Rain
2:54 AM 75.0 °F - 72.0 °F 90% 30.10 in 10.0 mi South 8.1 mph - N/A   Partly Cloudy
3:54 AM 75.0 °F - 73.0 °F 94% 30.09 in 10.0 mi SSW 5.8 mph - 0.01 in   Partly Cloudy
4:54 AM 75.0 °F - 72.0 °F 90% 30.10 in 10.0 mi South 5.8 mph - N/A   Clear
5:35 AM 75.2 °F - 73.4 °F 94% 30.12 in 10.0 mi South 8.1 mph - N/A   Mostly Cloudy
5:44 AM 75.2 °F - 73.4 °F 94% 30.12 in 10.0 mi South 6.9 mph - 0.00 in Rain Light Rain
5:54 AM 75.0 °F - 73.0 °F 94% 30.13 in 10.0 mi South 8.1 mph - 0.00 in   Mostly Cloudy
6:54 AM 75.9 °F - 73.0 °F 91% 30.15 in 10.0 mi South 5.8 mph - N/A   Clear
7:54 AM 77.0 °F - 73.0 °F 88% 30.16 in 10.0 mi South 6.9 mph - N/A   Clear
8:54 AM 82.0 °F 88.6 °F 75.0 °F 79% 30.17 in 10.0 mi South 10.4 mph - N/A   Clear
10:54 AM 84.9 °F 90.7 °F 72.0 °F 65% 30.17 in 10.0 mi South 8.1 mph - N/A   Scattered Clouds
11:54 AM 86.0 °F 93.8 °F 73.9 °F 67% 30.18 in 10.0 mi South 13.8 mph 23.0 mph N/A   Mostly Cloudy
12:54 PM 86.0 °F 96.0 °F 75.9 °F 72% 30.18 in 10.0 mi South 11.5 mph 24.2 mph 0.00 in Rain Light Rain
1:54 PM 87.1 °F 95.4 °F 73.9 °F 65% 30.18 in 10.0 mi South 20.7 mph 27.6 mph 0.00 in   Scattered Clouds
2:54 PM 88.0 °F 96.5 °F 73.9 °F 63% 30.19 in 10.0 mi South 12.7 mph 25.3 mph N/A   Mostly Cloudy
3:54 PM 88.0 °F 96.5 °F 73.9 °F 63% 30.19 in 10.0 mi SSW 10.4 mph 18.4 mph N/A   Mostly Cloudy
4:54 PM 87.1 °F 95.4 °F 73.9 °F 65% 30.18 in 10.0 mi South 12.7 mph - N/A   Clear
5:31 PM 84.2 °F 92.3 °F 75.2 °F 74% 30.18 in 8.0 mi SSE 11.5 mph 19.6 mph 0.00 in Rain Light Rain
5:44 PM 84.2 °F 92.3 °F 75.2 °F 74% 30.18 in 10.0 mi South 6.9 mph - 0.00 in Rain Light Rain
5:54 PM 84.9 °F 93.3 °F 75.0 °F 72% 30.18 in 10.0 mi South 8.1 mph - 0.00 in   Scattered Clouds
6:54 PM 82.9 °F 89.4 °F 73.9 °F 74% 30.19 in 10.0 mi South 6.9 mph - 0.00 in   Mostly Cloudy
7:54 PM 82.0 °F 88.6 °F 75.0 °F 79% 30.21 in 10.0 mi South 5.8 mph - N/A   Partly Cloudy
8:54 PM 81.0 °F 86.7 °F 75.0 °F 82% 30.21 in 10.0 mi South 4.6 mph - N/A   Scattered Clouds
9:54 PM 79.0 °F - 75.0 °F 88% 30.23 in 10.0 mi SSE 4.6 mph - N/A   Clear
10:54 PM 78.1 °F - 73.9 °F 87% 30.24 in 10.0 mi South 4.6 mph - N/A   Clear
11:54 PM 78.1 °F - 73.0 °F 84% 30.24 in 10.0 mi SSE 5.8 mph - N/A   Mostly Cloudy